Weather History for Milford, UT

Change the Weather History Date:

Sunday, December 9, 2012

  Actual Average Record
Temperature  
Mean Temperature 25 °F -  
Max Temperature 33 °F 40 °F 55 °F (1996)
Min Temperature 16 °F 18 °F -16 °F (2013)
Degree Days  
Heating Degree Days 40    
Moisture  
Dew Point 19 °F    
Average Humidity 73    
Maximum Humidity 88    
Minimum Humidity 42    
Precipitation  
Precipitation 0.02 in - - ()
Sea Level Pressure  
Sea Level Pressure 30.25 in    
Wind  
Wind Speed 11 mph (North)    
Max Wind Speed 22 mph    
Max Gust Speed 28 mph    
Visibility 7 miles    
Events Snow    
Averages and records for this station are not official NWS values.
T = Trace of Precipitation, MM = Missing Value Source: NWS Daily Summary

Daily Weather History Graph

Daily Weather History Graph

Search for Another Location

Airport:

Trip Planner

Search our weather history database for the weather conditions in past years. The results will help you decide how hot, cold, wet, or windy it might be!

Date:

Astronomy

Dec. 09, 2012 Rise Set
Actual Time 7:38 AM MST 5:11 PM MST
Civil Twilight 7:08 AM MST 5:40 PM MST
Nautical Twilight 6:35 AM MST 6:13 PM MST
Astronomical Twilight 6:03 AM MST 6:46 PM MST
Moon 3:17 AM MST (12/9) 2:18 PM MST (12/9)
Length of Visible Light 10h 32m
Length of Day
9h 33m
Waning Crescent, 18% of the Moon is Illuminated
Dec 9
Waning Crescent
Dec 13
New
Dec 19
First Quarter
Dec 28
Full
Jan 4
Last Quarter

Hourly Weather History & Observations

Time (MST) Temp. Windchill Dew Point Humidity Pressure Visibility Wind Dir Wind Speed Gust Speed Precip Events Conditions
12:52 AM 27.0 °F 19.5 °F 17.1 °F 66% 30.04 in 10.0 mi North 6.9 mph - N/A   Clear
1:52 AM 25.0 °F 13.6 °F 17.1 °F 72% 30.05 in 10.0 mi North 12.7 mph - N/A   Clear
2:52 AM 23.0 °F 13.1 °F 17.1 °F 78% 30.04 in 10.0 mi NNW 9.2 mph - N/A   Clear
3:52 AM 25.0 °F 12.2 °F 19.0 °F 78% 30.05 in 10.0 mi North 16.1 mph - N/A   Scattered Clouds
4:52 AM 26.1 °F 14.5 °F 18.0 °F 71% 30.08 in 10.0 mi North 13.8 mph - N/A   Overcast
5:52 AM 25.0 °F 12.6 °F 21.0 °F 85% 30.13 in 8.0 mi North 15.0 mph - 0.00 in Snow Light Snow
6:52 AM 24.1 °F 11.0 °F 19.9 °F 84% 30.17 in 8.0 mi North 16.1 mph - 0.00 in Snow Light Snow
7:30 AM 24.8 °F 12.4 °F 21.2 °F 86% 30.15 in 2.5 mi North 15.0 mph - 0.00 in Snow Light Snow
7:52 AM 24.1 °F 13.7 °F 21.0 °F 88% 30.21 in 2.5 mi North 10.4 mph - 0.00 in Snow Light Snow
8:07 AM 24.8 °F 14.0 °F 21.2 °F 86% 30.16 in 1.2 mi North 11.5 mph - 0.00 in Snow Light Snow
8:28 AM 24.8 °F 15.3 °F 21.2 °F 86% 30.17 in 1.8 mi North 9.2 mph - 0.01 in Snow Light Snow
8:41 AM 24.8 °F 14.6 °F 21.2 °F 86% 30.17 in 1.5 mi North 10.4 mph - 0.01 in Snow Light Snow
8:57 AM 24.8 °F 14.6 °F 21.2 °F 86% 30.18 in 1.8 mi North 10.4 mph - 0.00 in Snow Light Snow
9:02 AM 24.8 °F 15.3 °F 21.2 °F 86% 30.18 in 2.0 mi North 9.2 mph - 0.00 in Snow Light Snow
9:24 AM 24.8 °F 16.1 °F 21.2 °F 86% 30.19 in 3.0 mi North 8.1 mph - 0.00 in Snow Light Snow
9:57 AM 26.6 °F 17.5 °F 21.2 °F 80% 30.21 in 2.5 mi North 9.2 mph - 0.00 in Snow Light Snow
10:28 AM 26.6 °F 17.5 °F 21.2 °F 80% 30.22 in 3.0 mi North 9.2 mph - 0.00 in Snow Light Snow
10:52 AM 27.0 °F 18.0 °F 23.0 °F 85% 30.30 in 6.0 mi North 9.2 mph - 0.00 in Snow Light Snow
11:35 AM 28.4 °F 18.5 °F 23.0 °F 80% 30.24 in 5.0 mi NNE 11.5 mph - 0.00 in Snow Light Snow
11:52 AM 28.9 °F 19.8 °F 24.1 °F 82% 30.30 in 6.0 mi North 10.4 mph - 0.00 in Snow Light Snow
12:12 PM 28.4 °F 17.0 °F 23.0 °F 80% 30.24 in 9.0 mi North 15.0 mph - 0.00 in   Overcast
12:52 PM 28.9 °F 18.6 °F 23.0 °F 78% 30.31 in 7.0 mi North 12.7 mph - 0.00 in Snow Light Snow
1:10 PM 30.2 °F 19.8 °F 23.0 °F 75% 30.24 in 10.0 mi North 13.8 mph - 0.00 in   Overcast
1:37 PM 30.2 °F 19.3 °F 19.4 °F 64% 30.25 in 10.0 mi North 15.0 mph - 0.00 in   Overcast
1:52 PM 30.0 °F 20.0 °F 19.9 °F 66% 30.32 in 9.0 mi North 12.7 mph - 0.00 in Snow Light Snow
2:18 PM 30.2 °F 17.1 °F 15.8 °F 55% 30.24 in 9.0 mi North 21.9 mph 27.6 mph 0.00 in   Overcast
2:52 PM 32.0 °F 20.8 °F 16.0 °F 52% 30.32 in 10.0 mi North 17.3 mph - 0.00 in   Overcast
3:52 PM 30.0 °F 20.5 °F 16.0 °F 56% 30.34 in 10.0 mi NNE 11.5 mph - N/A   Overcast
4:52 PM 28.0 °F 20.0 °F 14.0 °F 56% 30.35 in 10.0 mi NNE 8.1 mph - N/A   Mostly Cloudy
5:52 PM 23.0 °F 18.4 °F 15.1 °F 72% 30.39 in 10.0 mi North 3.5 mph - N/A   Scattered Clouds
6:52 PM 26.1 °F 17.6 °F 16.0 °F 66% 30.40 in 10.0 mi North 8.1 mph - N/A   Overcast
7:52 PM 24.1 °F 16.0 °F 14.0 °F 65% 30.42 in 10.0 mi NNW 6.9 mph - N/A   Mostly Cloudy
8:52 PM 24.1 °F 15.2 °F 15.1 °F 69% 30.43 in 10.0 mi NNW 8.1 mph - N/A   Overcast
9:52 PM 19.0 °F 13.9 °F 14.0 °F 81% 30.43 in 10.0 mi NE 3.5 mph - N/A   Clear
10:52 PM 17.1 °F - 12.0 °F 81% 30.44 in 10.0 mi Calm Calm - N/A   Clear
11:52 PM 16.0 °F - 10.9 °F 81% 30.43 in 10.0 mi Calm Calm - N/A   Clear